This is the latest recevied weather packets stored in our database for station/object KO4IDC-13. If no packets are shown the sender has not sent any weather packets the latest 10 day(s).
| Time | Temp. | Humidity | Pressure | Rain* | Wind** | Luminosity | Snow |
|---|---|---|---|---|---|---|---|
| 1777902111 | 17.78° C | 61% | 1013.7 hPa | 0 mm | - | 310 W/m² | - |
| 1777901810 | 17.78° C | 63% | 1013.8 hPa | 0 mm | - | 316 W/m² | - |
| 1777901507 | 17.22° C | 63% | 1013.9 hPa | 0 mm | - | 279 W/m² | - |
| 1777901204 | 17.22° C | 64% | 1014 hPa | 0 mm | - | 260 W/m² | - |
| 1777900901 | 17.22° C | 64% | 1013.8 hPa | 0 mm | - | 145 W/m² | - |
| 1777900599 | 17.22° C | 64% | 1013.8 hPa | 0 mm | - | 181 W/m² | - |
| 1777900296 | 17.22° C | 63% | 1014 hPa | 0 mm | - | 247 W/m² | - |
| 1777899992 | 17.78° C | 63% | 1014.1 hPa | 0 mm | - | 278 W/m² | - |
| 1777899689 | 17.78° C | 63% | 1014 hPa | 0 mm | - | 250 W/m² | - |
| 1777899387 | 17.22° C | 64% | 1013.9 hPa | 0 mm | - | 244 W/m² | - |
| 1777899084 | 16.67° C | 65% | 1013.9 hPa | 0 mm | - | 202 W/m² | - |
| 1777898781 | 16.67° C | 65% | 1013.9 hPa | 0 mm | - | 173 W/m² | - |
| 1777898479 | 16.11° C | 67% | 1014 hPa | 0 mm | - | 171 W/m² | - |
| 1777898176 | 15.56° C | 68% | 1013.8 hPa | 0 mm | - | 161 W/m² | - |
| 1777897873 | 15.56° C | 68% | 1013.9 hPa | 0 mm | - | 121 W/m² | - |
| 1777897569 | 15° C | 70% | 1013.9 hPa | 0 mm | - | 107 W/m² | - |
| 1777897265 | 15° C | 71% | 1013.9 hPa | 0 mm | - | 77 W/m² | - |
| 1777896961 | 15° C | 71% | 1013.8 hPa | 0 mm | - | 62 W/m² | - |
| 1777896658 | 14.44° C | 71% | 1014 hPa | 0 mm | - | 61 W/m² | - |
| 1777896355 | 14.44° C | 72% | 1013.8 hPa | 0 mm | - | 62 W/m² | - |
| 1777896053 | 14.44° C | 73% | 1013.9 hPa | 0 mm | - | 59 W/m² | - |
| 1777895751 | 13.89° C | 73% | 1014 hPa | 0 mm | - | 53 W/m² | - |
| 1777895448 | 13.89° C | 73% | 1013.9 hPa | 0 mm | - | 49 W/m² | - |
| 1777895146 | 13.89° C | 73% | 1014.2 hPa | 0 mm | - | 44 W/m² | - |
| 1777894843 | 13.89° C | 73% | 1014 hPa | 0 mm | - | 40 W/m² | - |
* Rain latest hour (hover to see other rain measurements)
** Current wind speed in m/s (hover to see current wind gust speed)